Regional Weather Roundup
Issued by NWS Green Bay, WI

Home | Current Version | Previous Version | Graphics & Text | Print | Product List | Glossary Off
Versions: 1 2 3 4 5 6 7 8 9 10 11 12 13 14 15 16 17 18 19 20 21 22 23 24 25 26 27 28 29 30 31 32 33 34 35 36 37 38 39 40 41 42 43 44 45 46 47 48 49 50

000
ASUS43 KGRB 190459
RWRGRB

NORTH-CENTRAL AND NORTHEAST WISCONSIN REGIONAL WEATHER ROUNDUP
NATIONAL WEATHER SERVICE GREEN BAY WI
1200 AM CDT FRI SEP 19 2014

WIZ005-009-010>012-018-019-190600-
NORTH CENTRAL WISCONSIN

CITY           SKY/WX    TMP DP  RH WIND       PRES   REMARKS
IRONWOOD       PTCLDY    52  48  87 S12G20    30.03R
MANITOWISH WTR NOT AVBL
ARBOR VITAE    NOT AVBL
EAGLE RIVER    NOT AVBL
LAND O LAKES   NOT AVBL
RHINELANDER    CLEAR     46  45  96 SE5       30.11F
PHILLIPS       CLEAR     49  47  94 S8        30.06F
ANTIGO         NOT AVBL
TOMAHAWK       NOT AVBL
MERRILL        NOT AVBL
$$

WIZ013-073-190600-
NORTHEAST WISCONSIN

CITY           SKY/WX    TMP DP  RH WIND       PRES   REMARKS
IRON MOUNTAIN  CLEAR     44  41  89 SE5       30.14F
MARINETTE      CLEAR     45  41  87 CALM      30.16S
$$

WIZ017-030-035>037-045-190600-
CENTRAL WISCONSIN

CITY           SKY/WX    TMP DP  RH WIND       PRES   REMARKS
MEDFORD        NOT AVBL
WAUSAU         CLEAR     46  45  96 SE5       30.12F FOG
MOSINEE        CLEAR     45  45 100 SE6       30.14F FOG
MARSHFIELD     CLEAR     49  47  93 SE5       30.10F FOG
WISC RAPIDS    CLEAR     50  49  96 SE8       30.14S
STEVENS POINT  NOT AVBL
WAUPACA        NOT AVBL
SHAWANO        CLEAR     48  46  93 CALM      30.16S
CLINTONVILLE   CLEAR     45  45 100 CALM      30.16S FOG
$$

WIZ038-039-048-051-190600-
FOX VALLEY

CITY           SKY/WX    TMP DP  RH WIND       PRES   REMARKS
NWS GREEN BAY  CLEAR     44  44 100 CALM      30.17S FOG
APPLETON       NOT AVBL
OSHKOSH        CLEAR     48  47  96 CALM      30.16S
FOND DU LAC    CLEAR     48  45  89 S6        30.17S
$$

WIZ022-050-052-190600-
EAST CENTRAL WISCONSIN

CITY           SKY/WX    TMP DP  RH WIND       PRES   REMARKS
STURGEON BAY   CLEAR     45  43  93 CALM      30.18S
MANITOWOC      NOT AVBL
SHEBOYGAN      CLEAR     42  42 100 CALM      30.18R
$$

LMZ563-521-522-541>543-190600-
LAKESHORE

STATION/POSITION TIME  TEMP    WIND        PRES    VSBY  WAVE
                       AIR SEA DIR/SP/G                  HT/PER
                 (UTC) (F)     (DEG/KT/KT) (MB)    (MI)  (FT/S)
SHEBOYGAN LKSHOR 0400   51 49  340/  1/  2 1022.5R
KEWAUNEE LKSHORE 0400   47     300/  2/  2 1020.7S
NORTHPORT PIER   0400   51     160/  4/  6 1021.7S
N MID LAKE BUOY  0400   55 58  140/  6/  8 1022.3R         0
S GREEN BAY BUOY 0400   53     VRB  8/ 10  1022.3
CHAMBERS ISLAND  0400   46     140/  2/  4 1022.0S
MENOMINEE LKSHOR 0400   54     160/  8/  9 1021.9F
$$


USA.gov is the U.S. government's official web portal to all federal, state and local government web resources and services.